LNI644 WAHI-WAAA

Flight info

Callsign LNI644
Flight time 1h 31m
Altitude 33000
Route SO2A SO DCT BLACK T5 BIMAK BIMAK1A
Aircraft B739/M-SDE2E3FGHIRWXY/LB1

Departure

Time 2026-05-07 03:40
Airport Yogyakarta International Airport (WAHI)

Arrival

Time 2026-05-07 05:11
Airport Sultan Hasanuddin International Airport (WAAA)
Time Latitude Longitude Altitude Speed Heading
2026-05-07 03:13 -7.90120 110.05837 37 ft 0 kts 20°
2026-05-07 03:30 -7.90136 110.05831 37 ft 2 kts 19°
2026-05-07 03:31 -7.90151 110.05826 35 ft 2 kts 18°
2026-05-07 03:31 -7.90167 110.05821 34 ft 2 kts 14°
2026-05-07 03:31 -7.90184 110.05818 36 ft 2 kts
2026-05-07 03:31 -7.90199 110.05822 37 ft 2 kts 307°
2026-05-07 03:32 -7.90204 110.05830 35 ft 1 kts 292°
2026-05-07 03:32 -7.90204 110.05831 35 ft 0 kts 292°
2026-05-07 03:34 -7.90203 110.05824 37 ft 3 kts 273°
2026-05-07 03:34 -7.90231 110.05788 37 ft 10 kts 213°
2026-05-07 03:34 -7.90309 110.05757 41 ft 13 kts 197°
2026-05-07 03:35 -7.90338 110.05683 44 ft 16 kts 296°
2026-05-07 03:35 -7.90288 110.05554 42 ft 24 kts 290°
2026-05-07 03:35 -7.90225 110.05380 40 ft 27 kts 290°
2026-05-07 03:35 -7.90160 110.05208 35 ft 26 kts 289°
2026-05-07 03:36 -7.90102 110.05045 36 ft 24 kts 290°
2026-05-07 03:36 -7.90047 110.04891 36 ft 23 kts 290°
2026-05-07 03:36 -7.89993 110.04744 37 ft 22 kts 291°
2026-05-07 03:36 -7.89939 110.04601 38 ft 21 kts 288°
2026-05-07 03:37 -7.89889 110.04461 39 ft 21 kts 290°
2026-05-07 03:37 -7.89853 110.04339 39 ft 15 kts 261°
2026-05-07 03:37 -7.89890 110.04307 39 ft 0 kts 180°
2026-05-07 03:38 -7.89891 110.04307 39 ft 1 kts 178°
2026-05-07 03:38 -7.89921 110.04317 40 ft 8 kts 154°
2026-05-07 03:38 -7.89987 110.04349 41 ft 12 kts 153°
2026-05-07 03:38 -7.90045 110.04389 42 ft 9 kts 118°
2026-05-07 03:39 -7.90067 110.04447 42 ft 11 kts 110°
2026-05-07 03:39 -7.90136 110.04635 37 ft 57 kts 110°
2026-05-07 03:39 -7.90361 110.05251 36 ft 127 kts 110°
2026-05-07 03:39 -7.90733 110.06274 46 ft 181 kts 110°
2026-05-07 03:40 -7.91197 110.07538 548 ft 199 kts 110°
2026-05-07 03:40 -7.91505 110.08991 929 ft 231 kts 94°
2026-05-07 03:40 -7.91286 110.10634 1635 ft 237 kts 73°
2026-05-07 03:40 -7.90534 110.12077 2414 ft 233 kts 57°
2026-05-07 03:41 -7.89579 110.13496 2576 ft 259 kts 57°
2026-05-07 03:41 -7.88508 110.15020 2997 ft 271 kts 50°
2026-05-07 03:41 -7.87239 110.16383 3832 ft 264 kts 47°
2026-05-07 03:41 -7.85979 110.17745 4420 ft 268 kts 49°
2026-05-07 03:42 -7.84768 110.19185 5061 ft 268 kts 52°
2026-05-07 03:42 -7.83627 110.20676 5647 ft 270 kts 54°
2026-05-07 03:42 -7.82521 110.22227 6192 ft 273 kts 55°
2026-05-07 03:42 -7.81464 110.23801 6774 ft 273 kts 57°
2026-05-07 03:43 -7.80418 110.25427 7246 ft 278 kts 58°
2026-05-07 03:43 -7.79393 110.27069 7835 ft 277 kts 58°
2026-05-07 03:43 -7.78371 110.28736 8302 ft 280 kts 59°
2026-05-07 03:43 -7.77357 110.30415 8827 ft 281 kts 59°
2026-05-07 03:44 -7.76340 110.32114 9304 ft 284 kts 59°
2026-05-07 03:44 -7.75318 110.33827 9787 ft 286 kts 60°
2026-05-07 03:44 -7.74291 110.35556 10177 ft 290 kts 60°
2026-05-07 03:44 -7.73231 110.37346 10256 ft 305 kts 60°
2026-05-07 03:45 -7.72121 110.39226 10365 ft 319 kts 60°
2026-05-07 03:45 -7.70966 110.41185 10465 ft 332 kts 60°
2026-05-07 03:45 -7.69763 110.43224 10561 ft 344 kts 60°
2026-05-07 03:45 -7.68522 110.45330 10643 ft 355 kts 60°
2026-05-07 03:46 -7.67237 110.47508 10712 ft 366 kts 60°
2026-05-07 03:46 -7.65923 110.49737 10884 ft 372 kts 60°
2026-05-07 03:46 -7.64624 110.51942 11361 ft 368 kts 60°
2026-05-07 03:46 -7.63307 110.54179 11828 ft 366 kts 60°
2026-05-07 03:47 -7.62013 110.56376 12309 ft 363 kts 60°
2026-05-07 03:47 -7.60727 110.58553 12794 ft 360 kts 60°
2026-05-07 03:47 -7.59465 110.60690 13272 ft 358 kts 60°
2026-05-07 03:47 -7.58182 110.62865 13773 ft 355 kts 60°
2026-05-07 03:48 -7.56942 110.64967 14197 ft 352 kts 60°
2026-05-07 03:48 -7.55701 110.67071 14645 ft 348 kts 60°
2026-05-07 03:48 -7.54471 110.69155 15092 ft 344 kts 60°
2026-05-07 03:48 -7.53878 110.70161 15311 ft 342 kts 60°
2026-05-07 03:49 -7.52669 110.72209 15776 ft 337 kts 59°
2026-05-07 03:49 -7.51184 110.74019 16211 ft 334 kts 41°
2026-05-07 03:49 -7.49283 110.75308 16691 ft 329 kts 26°
2026-05-07 03:49 -7.47162 110.76115 17187 ft 322 kts 19°
2026-05-07 03:50 -7.45042 110.76793 17657 ft 318 kts 17°
2026-05-07 03:50 -7.42900 110.77452 18184 ft 326 kts 17°
2026-05-07 03:50 -7.40704 110.78127 18639 ft 334 kts 17°
2026-05-07 03:50 -7.38460 110.78824 19102 ft 342 kts 17°
2026-05-07 03:51 -7.36166 110.79543 19564 ft 349 kts 18°
2026-05-07 03:51 -7.33824 110.80283 20034 ft 356 kts 18°
2026-05-07 03:51 -7.31438 110.81042 20506 ft 362 kts 18°
2026-05-07 03:51 -7.29015 110.81815 20987 ft 368 kts 18°
2026-05-07 03:52 -7.26556 110.82601 21475 ft 373 kts 18°
2026-05-07 03:52 -7.24069 110.83397 21964 ft 378 kts 18°
2026-05-07 03:52 -7.21548 110.84205 22464 ft 382 kts 18°
2026-05-07 03:52 -7.19000 110.85021 22976 ft 386 kts 18°
2026-05-07 03:53 -7.16430 110.85844 23487 ft 389 kts 18°
2026-05-07 03:53 -7.13841 110.86674 23908 ft 392 kts 18°
2026-05-07 03:53 -7.11236 110.87508 24336 ft 394 kts 18°
2026-05-07 03:53 -7.08618 110.88346 24775 ft 396 kts 18°
2026-05-07 03:54 -7.05991 110.89188 25219 ft 397 kts 18°
2026-05-07 03:54 -7.03357 110.90031 25667 ft 397 kts 18°
2026-05-07 03:54 -7.00721 110.90875 26127 ft 398 kts 18°
2026-05-07 03:54 -6.98084 110.91719 26586 ft 397 kts 18°
2026-05-07 03:55 -6.95450 110.92562 27064 ft 397 kts 18°
2026-05-07 03:55 -6.92822 110.93403 27539 ft 396 kts 18°
2026-05-07 03:55 -6.90204 110.94241 28012 ft 394 kts 18°
2026-05-07 03:55 -6.87606 110.95073 28505 ft 391 kts 18°
2026-05-07 03:56 -6.85018 110.95901 29007 ft 388 kts 18°
2026-05-07 03:56 -6.82451 110.96722 29507 ft 385 kts 18°
2026-05-07 03:56 -6.79898 110.97538 29773 ft 389 kts 18°
2026-05-07 03:57 -6.74641 110.99220 29930 ft 403 kts 18°
2026-05-07 03:57 -6.69205 111.00958 30086 ft 416 kts 18°
2026-05-07 03:58 -6.63645 111.02735 30248 ft 428 kts 18°
2026-05-07 03:58 -6.57901 111.04571 30401 ft 439 kts 18°
2026-05-07 03:59 -6.52009 111.06454 30548 ft 449 kts 18°
2026-05-07 03:59 -6.45989 111.08378 30685 ft 458 kts 18°
2026-05-07 04:00 -6.39993 111.10645 30794 ft 465 kts 34°
2026-05-07 04:00 -6.37566 111.12773 30881 ft 465 kts 52°
2026-05-07 04:00 -6.35808 111.15492 30959 ft 465 kts 66°
2026-05-07 04:00 -6.34825 111.18587 31003 ft 466 kts 82°
2026-05-07 04:01 -6.34370 111.21809 31081 ft 468 kts 84°
2026-05-07 04:01 -6.33601 111.28354 31159 ft 475 kts 84°
2026-05-07 04:02 -6.32796 111.34981 31236 ft 480 kts 84°
2026-05-07 04:02 -6.31924 111.41666 31340 ft 485 kts 83°
2026-05-07 04:03 -6.31026 111.48398 31529 ft 486 kts 83°
2026-05-07 04:03 -6.30728 111.50625 31648 ft 485 kts 83°
2026-05-07 04:03 -6.30280 111.53982 31821 ft 484 kts 83°
2026-05-07 04:03 -6.29832 111.57337 31993 ft 484 kts 83°
2026-05-07 04:04 -6.29386 111.60691 32141 ft 484 kts 83°
2026-05-07 04:04 -6.28940 111.64039 32297 ft 484 kts 83°
2026-05-07 04:04 -6.28494 111.67390 32455 ft 483 kts 83°
2026-05-07 04:04 -6.28049 111.70734 32638 ft 483 kts 83°
2026-05-07 04:05 -6.27604 111.74071 32793 ft 480 kts 84°
2026-05-07 04:05 -6.26719 111.80704 32881 ft 479 kts 83°
2026-05-07 04:06 -6.25825 111.87337 32891 ft 479 kts 83°
2026-05-07 04:06 -6.24916 111.93986 32890 ft 480 kts 83°
2026-05-07 04:07 -6.24006 112.00638 32878 ft 481 kts 83°
2026-05-07 04:07 -6.23097 112.07298 32883 ft 481 kts 83°
2026-05-07 04:08 -6.22186 112.13967 32890 ft 482 kts 83°
2026-05-07 04:08 -6.21274 112.20639 32887 ft 482 kts 83°
2026-05-07 04:09 -6.20366 112.27272 32878 ft 482 kts 83°
2026-05-07 04:09 -6.19451 112.33951 32890 ft 483 kts 83°
2026-05-07 04:10 -6.18535 112.40633 32885 ft 483 kts 83°
2026-05-07 04:10 -6.17619 112.47313 32892 ft 483 kts 84°
2026-05-07 04:11 -6.16702 112.53990 32894 ft 483 kts 83°
2026-05-07 04:11 -6.15784 112.60669 32886 ft 482 kts 83°
2026-05-07 04:12 -6.14866 112.67346 32897 ft 482 kts 83°
2026-05-07 04:12 -6.13946 112.74020 32894 ft 482 kts 83°
2026-05-07 04:13 -6.13027 112.80690 32890 ft 482 kts 84°
2026-05-07 04:13 -6.12106 112.87363 32891 ft 482 kts 83°
2026-05-07 04:14 -6.11185 112.94026 32891 ft 482 kts 83°
2026-05-07 04:14 -6.10264 113.00691 32885 ft 482 kts 83°
2026-05-07 04:15 -6.09341 113.07358 32887 ft 482 kts 83°
2026-05-07 04:15 -6.08417 113.14026 32893 ft 482 kts 83°
2026-05-07 04:16 -6.07500 113.20650 32892 ft 482 kts 83°
2026-05-07 04:16 -6.06575 113.27313 32891 ft 482 kts 83°
2026-05-07 04:17 -6.05649 113.33983 32882 ft 482 kts 83°
2026-05-07 04:17 -6.04721 113.40655 32890 ft 482 kts 83°
2026-05-07 04:18 -6.03792 113.47332 32891 ft 483 kts 83°
2026-05-07 04:18 -6.02862 113.54012 32885 ft 483 kts 84°
2026-05-07 04:19 -6.01931 113.60696 32889 ft 483 kts 83°
2026-05-07 04:19 -6.00999 113.67372 32892 ft 483 kts 83°
2026-05-07 04:20 -6.00066 113.74059 32883 ft 483 kts 83°
2026-05-07 04:20 -5.99130 113.80751 32888 ft 483 kts 83°
2026-05-07 04:21 -5.97726 113.90785 32889 ft 484 kts 83°
2026-05-07 04:21 -5.96789 113.97477 32882 ft 484 kts 84°
2026-05-07 04:22 -5.95850 114.04171 32877 ft 484 kts 83°
2026-05-07 04:22 -5.94912 114.10865 32876 ft 484 kts 83°
2026-05-07 04:23 -5.93972 114.17556 32875 ft 484 kts 83°
2026-05-07 04:23 -5.93030 114.24253 32882 ft 484 kts 83°
2026-05-07 04:24 -5.92088 114.30948 32884 ft 484 kts 83°
2026-05-07 04:24 -5.91146 114.37647 32883 ft 484 kts 83°
2026-05-07 04:25 -5.90203 114.44344 32866 ft 484 kts 83°
2026-05-07 04:25 -5.89260 114.51038 32882 ft 485 kts 83°
2026-05-07 04:26 -5.88314 114.57742 32882 ft 485 kts 83°
2026-05-07 04:26 -5.87367 114.64446 32871 ft 485 kts 83°
2026-05-07 04:27 -5.86420 114.71148 32879 ft 485 kts 83°
2026-05-07 04:27 -5.85473 114.77848 32879 ft 484 kts 83°
2026-05-07 04:28 -5.84525 114.84545 32879 ft 484 kts 83°
2026-05-07 04:28 -5.83575 114.91240 32879 ft 484 kts 83°
2026-05-07 04:29 -5.82627 114.97923 32869 ft 483 kts 83°
2026-05-07 04:29 -5.81679 115.04602 32867 ft 483 kts 83°
2026-05-07 04:30 -5.80731 115.11277 32879 ft 483 kts 83°
2026-05-07 04:30 -5.79789 115.17900 32877 ft 482 kts 83°
2026-05-07 04:31 -5.78842 115.24559 32870 ft 481 kts 83°
2026-05-07 04:31 -5.77894 115.31208 32868 ft 481 kts 83°
2026-05-07 04:32 -5.76948 115.37848 32872 ft 480 kts 83°
2026-05-07 04:32 -5.76002 115.44477 32867 ft 480 kts 83°
2026-05-07 04:33 -5.75056 115.51104 32879 ft 479 kts 83°
2026-05-07 04:33 -5.74109 115.57729 32866 ft 479 kts 83°
2026-05-07 04:34 -5.73162 115.64352 32868 ft 479 kts 83°
2026-05-07 04:34 -5.72215 115.70970 32869 ft 479 kts 83°
2026-05-07 04:35 -5.71265 115.77595 32867 ft 479 kts 83°
2026-05-07 04:35 -5.70314 115.84227 32869 ft 480 kts 83°
2026-05-07 04:36 -5.69363 115.90859 32868 ft 480 kts 83°
2026-05-07 04:36 -5.68411 115.97489 32867 ft 480 kts 83°
2026-05-07 04:37 -5.67457 116.04124 32866 ft 480 kts 83°
2026-05-07 04:37 -5.66502 116.10765 32864 ft 481 kts 83°
2026-05-07 04:38 -5.65545 116.17406 32866 ft 481 kts 83°
2026-05-07 04:38 -5.64588 116.24050 32867 ft 481 kts 83°
2026-05-07 04:39 -5.63629 116.30696 32859 ft 481 kts 83°
2026-05-07 04:39 -5.62670 116.37342 32857 ft 481 kts 83°
2026-05-07 04:40 -5.61711 116.43981 32866 ft 481 kts 83°
2026-05-07 04:40 -5.60757 116.50582 32849 ft 481 kts 83°
2026-05-07 04:41 -5.59796 116.57225 32850 ft 481 kts 83°
2026-05-07 04:41 -5.58834 116.63865 32862 ft 481 kts 83°
2026-05-07 04:42 -5.57872 116.70509 32859 ft 481 kts 83°
2026-05-07 04:42 -5.56909 116.77145 32859 ft 481 kts 83°
2026-05-07 04:43 -5.55945 116.83785 32858 ft 480 kts 83°
2026-05-07 04:43 -5.54982 116.90419 32862 ft 480 kts 83°
2026-05-07 04:44 -5.54017 116.97059 32861 ft 480 kts 83°
2026-05-07 04:44 -5.53052 117.03696 32856 ft 481 kts 83°
2026-05-07 04:45 -5.52117 117.10337 32852 ft 480 kts 83°
2026-05-07 04:45 -5.51294 117.16987 32861 ft 480 kts 84°
2026-05-07 04:46 -5.50487 117.23643 32858 ft 480 kts 84°
2026-05-07 04:46 -5.49665 117.30301 32852 ft 481 kts 84°
2026-05-07 04:47 -5.48839 117.36915 32838 ft 481 kts 84°
2026-05-07 04:47 -5.48003 117.43577 32854 ft 481 kts 84°
2026-05-07 04:48 -5.47163 117.50276 32852 ft 481 kts 83°
2026-05-07 04:48 -5.46327 117.56935 32853 ft 481 kts 83°
2026-05-07 04:49 -5.45497 117.63551 32838 ft 481 kts 83°
2026-05-07 04:49 -5.44796 117.69122 32843 ft 480 kts 83°
2026-05-07 04:50 -5.44238 117.73567 32050 ft 492 kts 84°
2026-05-07 04:50 -5.43810 117.76971 31318 ft 491 kts 84°
2026-05-07 04:50 -5.43380 117.80380 30396 ft 493 kts 84°
2026-05-07 04:50 -5.42949 117.83809 29371 ft 496 kts 84°
2026-05-07 04:51 -5.42518 117.87232 28307 ft 491 kts 84°
2026-05-07 04:51 -5.42092 117.90607 27299 ft 484 kts 84°
2026-05-07 04:51 -5.41808 117.92854 26626 ft 479 kts 83°
2026-05-07 04:51 -5.41261 117.97191 25622 ft 465 kts 83°
2026-05-07 04:52 -5.40994 117.99311 25121 ft 459 kts 83°
2026-05-07 04:52 -5.40598 118.02449 24454 ft 450 kts 83°
2026-05-07 04:52 -5.40207 118.05547 23780 ft 445 kts 83°
2026-05-07 04:52 -5.39816 118.08643 23043 ft 452 kts 83°
2026-05-07 04:53 -5.39420 118.11788 22586 ft 456 kts 83°
2026-05-07 04:53 -5.39023 118.14959 22147 ft 459 kts 83°
2026-05-07 04:53 -5.38626 118.18142 21763 ft 460 kts 83°
2026-05-07 04:53 -5.38230 118.21319 21371 ft 456 kts 83°
2026-05-07 04:54 -5.37838 118.24467 20992 ft 452 kts 83°
2026-05-07 04:54 -5.37448 118.27590 20627 ft 450 kts 83°
2026-05-07 04:54 -5.37056 118.30726 20254 ft 454 kts 83°
2026-05-07 04:54 -5.36666 118.33847 19872 ft 447 kts 83°
2026-05-07 04:55 -5.36281 118.36916 19497 ft 440 kts 83°
2026-05-07 04:55 -5.35903 118.39938 19130 ft 435 kts 83°
2026-05-07 04:55 -5.35526 118.42945 18754 ft 434 kts 83°
2026-05-07 04:55 -5.35151 118.45942 18392 ft 432 kts 83°
2026-05-07 04:56 -5.34776 118.48928 18009 ft 430 kts 83°
2026-05-07 04:56 -5.34404 118.51903 17620 ft 428 kts 83°
2026-05-07 04:56 -5.34034 118.54853 17250 ft 425 kts 83°
2026-05-07 04:56 -5.33665 118.57790 16885 ft 423 kts 83°
2026-05-07 04:57 -5.33300 118.60705 16535 ft 420 kts 83°
2026-05-07 04:57 -5.32936 118.63599 16186 ft 417 kts 83°
2026-05-07 04:57 -5.32574 118.66482 15843 ft 415 kts 83°
2026-05-07 04:57 -5.32214 118.69349 15502 ft 413 kts 83°
2026-05-07 04:58 -5.31855 118.72202 15158 ft 411 kts 83°
2026-05-07 04:58 -5.31566 118.74502 14881 ft 409 kts 83°
2026-05-07 04:58 -5.31299 118.76630 14621 ft 408 kts 83°
2026-05-07 04:58 -5.30944 118.79447 14259 ft 406 kts 83°
2026-05-07 04:59 -5.30592 118.82246 13929 ft 404 kts 83°
2026-05-07 04:59 -5.30241 118.85031 13586 ft 400 kts 83°
2026-05-07 04:59 -5.29895 118.87777 13218 ft 394 kts 83°
2026-05-07 04:59 -5.29559 118.90447 12872 ft 385 kts 83°
2026-05-07 05:00 -5.29348 118.93129 12422 ft 378 kts 88°
2026-05-07 05:00 -5.29322 118.95744 11978 ft 371 kts 90°
2026-05-07 05:00 -5.29354 118.98274 11613 ft 360 kts 91°
2026-05-07 05:00 -5.29393 119.00725 11228 ft 345 kts 91°
2026-05-07 05:01 -5.29419 119.03088 10837 ft 332 kts 90°
2026-05-07 05:01 -5.29428 119.05366 10459 ft 321 kts 90°
2026-05-07 05:01 -5.29430 119.07569 10089 ft 311 kts 89°
2026-05-07 05:01 -5.29428 119.09689 9912 ft 294 kts 89°
2026-05-07 05:02 -5.29423 119.11679 9667 ft 282 kts 89°
2026-05-07 05:02 -5.29417 119.13662 9115 ft 282 kts 89°
2026-05-07 05:02 -5.29410 119.15618 8702 ft 277 kts 89°
2026-05-07 05:02 -5.29403 119.17523 8351 ft 269 kts 90°
2026-05-07 05:03 -5.29397 119.19376 8028 ft 263 kts 90°
2026-05-07 05:03 -5.29389 119.21196 7716 ft 259 kts 89°
2026-05-07 05:03 -5.29380 119.22999 7410 ft 257 kts 89°
2026-05-07 05:03 -5.29371 119.24792 7112 ft 258 kts 89°
2026-05-07 05:04 -5.29363 119.26595 6802 ft 260 kts 89°
2026-05-07 05:04 -5.29356 119.28407 6487 ft 259 kts 89°
2026-05-07 05:04 -5.29348 119.30206 6158 ft 258 kts 89°
2026-05-07 05:04 -5.29341 119.31999 5845 ft 256 kts 90°
2026-05-07 05:05 -5.29333 119.33777 5529 ft 254 kts 90°
2026-05-07 05:05 -5.29326 119.35546 5224 ft 253 kts 90°
2026-05-07 05:05 -5.29318 119.37300 4926 ft 251 kts 89°
2026-05-07 05:05 -5.29311 119.39057 4633 ft 252 kts 89°
2026-05-07 05:06 -5.29300 119.40812 4295 ft 251 kts 87°
2026-05-07 05:06 -5.28837 119.42465 4025 ft 245 kts 60°
2026-05-07 05:06 -5.27736 119.43725 3733 ft 239 kts 38°
2026-05-07 05:06 -5.26337 119.44573 3494 ft 231 kts 30°
2026-05-07 05:07 -5.24934 119.45331 3262 ft 228 kts 30°
2026-05-07 05:07 -5.23561 119.46093 3155 ft 220 kts 31°
2026-05-07 05:07 -5.22255 119.46840 2895 ft 212 kts 31°
2026-05-07 05:07 -5.21003 119.47569 2637 ft 210 kts 31°
2026-05-07 05:08 -5.19749 119.48297 2360 ft 205 kts 31°
2026-05-07 05:08 -5.18554 119.48990 2090 ft 193 kts 30°
2026-05-07 05:08 -5.17429 119.49643 1844 ft 181 kts 30°
2026-05-07 05:08 -5.16378 119.50253 1675 ft 167 kts 29°
2026-05-07 05:09 -5.15403 119.50819 1436 ft 158 kts 28°
2026-05-07 05:09 -5.14476 119.51356 1239 ft 151 kts 29°
2026-05-07 05:09 -5.13761 119.51772 1057 ft 153 kts 29°
2026-05-07 05:09 -5.13015 119.52206 903 ft 156 kts 29°
2026-05-07 05:10 -5.12067 119.52756 705 ft 159 kts 29°
2026-05-07 05:10 -5.11106 119.53313 508 ft 159 kts 30°
2026-05-07 05:10 -5.10149 119.53870 301 ft 158 kts 29°
2026-05-07 05:10 -5.09198 119.54419 87 ft 156 kts 27°
2026-05-07 05:11 -5.08294 119.54938 39 ft 137 kts 30°
2026-05-07 05:11 -5.07573 119.55361 41 ft 78 kts 29°
2026-05-07 05:11 -5.07337 119.55427 39 ft 22 kts
2026-05-07 05:11 -5.07241 119.55429 39 ft 12 kts 358°
2026-05-07 05:12 -5.07196 119.55391 40 ft 7 kts 281°
2026-05-07 05:12 -5.07217 119.55358 40 ft 6 kts 208°
2026-05-07 05:12 -5.07261 119.55333 40 ft 8 kts 210°
2026-05-07 05:12 -5.07307 119.55308 40 ft 8 kts 209°
2026-05-07 05:13 -5.07367 119.55273 40 ft 13 kts 210°
2026-05-07 05:13 -5.07465 119.55217 40 ft 19 kts 208°
2026-05-07 05:13 -5.07588 119.55149 40 ft 20 kts 213°
2026-05-07 05:13 -5.07706 119.55078 40 ft 20 kts 210°
2026-05-07 05:14 -5.07822 119.55011 40 ft 19 kts 211°
2026-05-07 05:14 -5.07934 119.54946 40 ft 18 kts 210°
2026-05-07 05:14 -5.08038 119.54882 40 ft 16 kts 225°
2026-05-07 05:14 -5.08030 119.54782 38 ft 16 kts 300°
2026-05-07 05:15 -5.07943 119.54765 39 ft 15 kts 29°
2026-05-07 05:15 -5.07921 119.54799 40 ft 4 kts 115°
2026-05-07 05:15 -5.07935 119.54825 40 ft 4 kts 119°
2026-05-07 05:15 -5.07946 119.54844 39 ft 0 kts 120°